Location: ??
(34.9170°N, 135.5016°E)
Time: 16:22:25
(UTC+00:00)

Vanguard 2 - All Passes

Search period start: 26 February 2021 00:00
Search period end: 08 March 2021 00:00
Orbit: 552 x 2938 km, 32.9° (Epoch: 25 February)

Date Brightness Start Highest point End Pass type
(mag) Time Alt. Az. Time Alt. Az. Time Alt. Az.
26 Feb - 01:02:51 10° W 01:19:15 63° SSW 01:29:58 10° SE daylight
26 Feb - 03:18:04 10° W 03:28:14 26° SW 03:35:27 10° S daylight
26 Feb - 16:40:08 10° S 16:49:32 22° SE 17:00:47 10° E visible
26 Feb - 18:45:00 10° SW 18:59:35 53° SSE 19:16:32 10° E visible
26 Feb - 20:54:43 10° WSW 21:12:08 79° SSE 21:28:38 10° E visible
26 Feb - 23:07:14 10° W 23:25:23 81° S 23:39:04 10° ESE daylight
27 Feb - 01:21:06 10° W 01:36:53 54° SSW 01:47:21 10° SE daylight
27 Feb - 03:37:30 10° W 03:45:19 18° SW 03:51:22 10° S daylight
27 Feb - 16:55:56 10° S 17:06:44 29° SE 17:20:14 10° E visible
27 Feb - 19:02:18 10° SW 19:17:17 62° SSE 19:34:43 10° E visible
27 Feb - 21:12:40 10° WSW 21:30:14 83° S 21:46:37 10° E daylight
27 Feb - 23:25:23 10° W 23:43:25 76° SSW 23:56:51 10° ESE daylight
28 Feb - 01:39:25 10° W 01:54:22 44° SW 02:04:30 10° SSE daylight
28 Feb - 03:58:38 10° WSW 04:02:19 12° SW 04:05:36 10° SW daylight
28 Feb - 17:12:22 10° SSW 17:24:00 37° SE 17:39:05 10° E visible
28 Feb - 19:19:49 10° WSW 19:35:07 70° SSE 19:52:49 10° E visible
28 Feb - 21:30:41 10° W 21:48:23 84° S 22:04:36 10° E daylight
28 Feb - 23:43:32 10° W 00:01:20 70° SSW 00:14:30 10° ESE daylight
01 Mar - 01:57:58 10° W 02:11:41 35° SW 02:21:22 10° SSE daylight
01 Mar - 15:26:56 10° SSE 15:32:35 14° SE 15:39:10 10° ESE visible
01 Mar - 17:29:11 10° SSW 17:41:23 46° SE 17:57:35 10° E visible
01 Mar - 19:37:30 10° WSW 19:53:05 76° SSE 20:10:54 10° E visible
01 Mar - 21:48:44 10° W 22:06:32 83° S 22:22:33 10° E daylight
02 Mar - 00:01:42 10° W 00:19:08 62° SSW 00:32:02 10° SE daylight
02 Mar - 02:16:49 10° W 02:28:53 27° SW 02:37:49 10° S daylight
02 Mar - 15:41:43 10° S 15:49:38 21° SE 15:59:45 10° E visible
02 Mar - 17:46:18 10° SW 17:58:55 55° SSE 18:15:53 10° E visible
02 Mar - 19:55:19 10° WSW 20:11:08 81° S 20:28:58 10° E visible
02 Mar - 22:06:49 10° W 22:24:39 80° S 22:40:26 10° ESE daylight
03 Mar - 00:19:54 10° W 00:36:47 53° SSW 00:49:21 10° SE daylight
03 Mar - 02:36:19 10° W 02:45:59 20° SW 02:53:38 10° S daylight
03 Mar - 15:57:41 10° S 16:06:45 29° SE 16:19:07 10° E visible
03 Mar - 18:03:39 10° SW 18:16:35 64° SSE 18:34:06 10° E visible
03 Mar - 20:13:13 10° W 20:29:15 83° S 20:47:02 10° E visible
03 Mar - 22:24:53 10° W 22:42:41 75° SSW 22:58:14 10° ESE daylight
04 Mar - 00:38:15 10° W 00:54:17 44° SW 01:06:26 10° SSE daylight
04 Mar - 02:57:16 10° WSW 03:03:02 13° SW 03:08:04 10° SSW daylight
04 Mar - 16:14:13 10° SSW 16:23:58 37° SE 16:37:55 10° E visible
04 Mar - 18:21:12 10° WSW 18:34:24 71° SSE 18:52:16 10° E visible
04 Mar - 20:31:10 10° W 20:47:23 84° S 21:05:05 10° E visible
04 Mar - 22:42:58 10° W 23:00:37 68° SSW 23:15:53 10° ESE daylight
05 Mar - 00:56:48 10° W 01:11:39 36° SW 01:23:12 10° SSE daylight
05 Mar - 14:29:17 10° SSE 14:33:16 13° SE 14:37:55 10° ESE visible
05 Mar - 16:31:07 10° SW 16:41:18 46° SE 16:56:23 10° E visible
05 Mar - 18:38:53 10° WSW 18:52:20 77° SSE 19:10:24 10° E visible
05 Mar - 20:49:09 10° W 21:05:32 82° S 21:23:06 10° ESE visible
05 Mar - 23:01:04 10° W 23:18:26 61° SSW 23:33:23 10° SE daylight
06 Mar - 01:15:43 10° W 01:28:54 28° SW 01:39:31 10° S daylight
06 Mar - 14:44:00 10° S 14:50:17 19° SE 14:58:33 10° E visible
06 Mar - 16:48:18 10° SW 16:58:48 55° SSE 17:14:42 10° E visible
06 Mar - 18:56:40 10° WSW 19:10:23 81° S 19:28:33 10° E visible
06 Mar - 21:07:08 10° W 21:23:38 78° SSW 21:41:01 10° ESE daylight
06 Mar - 23:19:15 10° W 23:36:07 52° SSW 23:50:38 10° SE daylight
07 Mar - 01:35:18 10° W 01:46:05 20° SW 01:55:11 10° S daylight
07 Mar - 15:00:02 10° S 15:07:22 27° SE 15:17:50 10° E visible
07 Mar - 17:05:42 10° SW 17:16:28 64° SSE 17:32:55 10° E visible
07 Mar - 19:14:31 10° W 19:28:27 83° S 19:46:40 10° E visible
07 Mar - 21:25:08 10° W 21:41:39 73° SSW 21:58:50 10° ESE daylight
